Weather History for Coral Harbour, NU

Change the Weather History Date:

Monday, October 7, 2013

  Actual Average Record
Temperature  
Mean Temperature 28 °F -  
Max Temperature 30 °F 21 °F 35 °F (1998)
Min Temperature 26 °F 8 °F 8 °F (2004)
Degree Days  
Heating Degree Days 37    
Moisture  
Dew Point 24 °F    
Average Humidity 82    
Maximum Humidity 93    
Minimum Humidity 69    
Precipitation  
Precipitation 0.00 in 0.04 in - ()
Sea Level Pressure  
Sea Level Pressure 29.83 in    
Wind  
Wind Speed 17 mph ()    
Max Wind Speed 25 mph    
Max Gust Speed 32 mph    
Visibility 14.0 miles    
Events Rain    
Averages and records for this station are not official NWS values.
T = Trace of Precipitation, MM = Missing Value Source: Averaged Metar Reports

Daily Weather History Graph

Daily Weather History Graph

Search for Another Location

Airport:

Trip Planner

Search our weather history database for the weather conditions in past years. The results will help you decide how hot, cold, wet, or windy it might be!

Date:

Astronomy

Oct. 07, 2013 Rise Set
Actual Time 8:00 AM EDT 6:40 PM EDT
Civil Twilight 7:12 AM EDT 7:27 PM EDT
Nautical Twilight 6:17 AM EDT 8:23 PM EDT
Astronomical Twilight 5:18 AM EDT 9:21 PM EDT
Moon 12:01 PM EDT (10/7) 7:08 PM EDT (10/7)
Length of Visible Light 12h 14m
Length of Day
10h 39m
Waxing Crescent, 8% of the Moon is Illuminated
Oct 7
Waxing Crescent
Oct 11
First Quarter
Oct 18
Full
Oct 26
Last Quarter
Nov 3
New

Hourly Weather History & Observations

Time (EDT) Temp. Windchill Dew Point Humidity Pressure Visibility Wind Dir Wind Speed Gust Speed Precip Events Conditions
12:00 AM 26.6 °F 13.8 °F 23.0 °F 86% 30.01 in 12.0 mi East 17.3 mph - N/A   Light Freezing Drizzle
1:00 AM 26.6 °F 13.8 °F 23.0 °F 86% 29.99 in 12.0 mi East 17.3 mph - N/A   Light Freezing Drizzle
2:00 AM 26 °F - 23 °F 83% 29.96 in 12 mi East 13.8 mph - - Rain Light Freezing Drizzle
2:00 AM 26.6 °F 14.7 °F 23.0 °F 86% 29.96 in 12.0 mi East 15.0 mph - N/A   Light Freezing Drizzle
4:00 AM 26.6 °F 14.3 °F 24.8 °F 93% 29.93 in 12.0 mi East 16.1 mph 21.9 mph N/A   Light Freezing Drizzle
5:00 AM 26.6 °F 13.8 °F 24.8 °F 93% 29.91 in 12.0 mi East 17.3 mph - N/A   Light Freezing Drizzle
6:00 AM 28.4 °F 16.6 °F 23.0 °F 80% 29.90 in 12.0 mi East 16.1 mph - N/A   Light Freezing Drizzle
7:00 AM 28.4 °F 15.8 °F 23.0 °F 80% 29.89 in 12.0 mi East 18.4 mph - N/A   Light Freezing Drizzle
8:00 AM 28 °F - 24 °F 77% 29.88 in 15 mi ENE 16.1 mph - - Rain Light Freezing Drizzle
8:00 AM 28.4 °F 16.6 °F 23.0 °F 80% 29.88 in 15.0 mi ENE 16.1 mph 21.9 mph N/A   Light Freezing Drizzle
8:41 AM - - - N/A% - 15.0 mi ENE 19.6 mph 26.5 mph N/A   Overcast
9:00 AM 26.6 °F 13.1 °F 24.8 °F 93% 29.87 in 15.0 mi NE 19.6 mph - N/A   Overcast
9:37 AM - - - N/A% - 12.0 mi ENE 20.7 mph - N/A   Light Freezing Drizzle
10:00 AM 28.4 °F 15.8 °F 24.8 °F 86% 29.85 in 12.0 mi ENE 18.4 mph 27.6 mph N/A   Light Freezing Drizzle
11:00 AM 28.4 °F 14.1 °F 24.8 °F 86% 29.83 in 15.0 mi ENE 24.2 mph - N/A   Light Freezing Drizzle
12:00 PM 28.4 °F 14.4 °F 24.8 °F 86% 29.81 in 15.0 mi ENE 23.0 mph 31.1 mph N/A   Light Freezing Drizzle
12:38 PM - - - N/A% - 15.0 mi ENE 24.2 mph 29.9 mph N/A   Overcast
1:00 PM 30.2 °F 16.2 °F 24.8 °F 80% 29.80 in 15.0 mi ENE 25.3 mph 32.2 mph N/A   Overcast
2:00 PM 30 °F - 24 °F 69% 29.79 in 15 mi ENE 21.9 mph - -   Partly Cloudy
2:00 PM 30.2 °F 17.1 °F 23.0 °F 75% 29.79 in 15.0 mi ENE 21.9 mph 29.9 mph N/A   Overcast
3:00 PM 30.2 °F 17.1 °F 23.0 °F 75% 29.77 in 15.0 mi ENE 21.9 mph 29.9 mph N/A   Overcast
4:00 PM 30.2 °F 16.8 °F 23.0 °F 75% 29.76 in 15.0 mi NE 23.0 mph 29.9 mph N/A   Overcast
5:00 PM 28.4 °F 15.1 °F 23.0 °F 80% 29.76 in 15.0 mi NE 20.7 mph 29.9 mph N/A   Mostly Cloudy
6:00 PM 28.4 °F 15.4 °F 23.0 °F 80% 29.75 in 15.0 mi NE 19.6 mph 27.6 mph N/A   Mostly Cloudy
7:00 PM 28.4 °F 16.6 °F 23.0 °F 80% 29.75 in 15.0 mi NE 16.1 mph 25.3 mph N/A   Overcast
8:00 PM 28 °F - 23 °F 75% 29.74 in 15 mi NE 18.4 mph - -   Overcast
8:00 PM 28.4 °F 15.4 °F 23.0 °F 80% 29.74 in 15.0 mi ENE 19.6 mph - N/A   Overcast
9:00 PM 28.4 °F 14.7 °F 23.0 °F 80% 29.73 in 15.0 mi NE 21.9 mph 29.9 mph N/A   Overcast
10:00 PM 28.4 °F 13.8 °F 23.0 °F 80% 29.71 in 15.0 mi NNE 25.3 mph - N/A   Overcast
11:00 PM 28.4 °F 15.4 °F 23.0 °F 80% 29.69 in 15.0 mi NE 19.6 mph 26.5 mph N/A   Overcast